Location: Hopewell Observatory
(38.8698°N, 77.6988°W)
Time: 04:41:52
(UTC-04:00)

Amateur Radio Satellites - All Passes

Search period start: 28 July 2015 04:11
Search period end: 29 July 2015 04:11
Location: Hopewell Observatory, 38.8698°N, 77.6988°W

Satellite Date Start Highest point End Downlink Frequencies (MHz)
Time Altitude Azimuth
ISS 28 Jul 04:14:12 04:16:07 15° 19° (NNE) 04:18:05 145.825
JAS-2 28 Jul 04:24:45 04:32:33 75° 102° (ESE) 04:40:23 435.910
AO-7 28 Jul 04:25:36 04:33:00 36° 97° (E) 04:40:29 29.400- 29.500
STARS 28 Jul 04:26:27 04:30:23 32° 263° (W) 04:34:17 437.465
RS-15 28 Jul 04:34:34 04:42:16 20° 15° (NNE) 04:50:25 29.354- 29.394
KKS-1 28 Jul 04:43:25 04:45:43 13° 270° (W) 04:47:47 437.445
CUSAT 1 28 Jul 04:46:32 04:49:07 21° 97° (E) 04:51:27 437.405
MOZHAYETS 4 28 Jul 04:56:59 05:01:38 87° 264° (W) 05:06:18
Cosmos 2504 28 Jul 04:59:23 05:05:46 35° 288° (WNW) 05:12:25 435.465 / 435.565
Gurwin Techsat 1B 28 Jul 05:00:08 05:03:56 20° 295° (WNW) 05:07:33 435.225
DANDE 28 Jul 05:34:02 05:37:57 68° 99° (E) 05:41:00 436.750
HORYU 2 28 Jul 05:38:45 05:43:04 45° 287° (WNW) 05:47:21 437.375
GONETS M04 28 Jul 05:40:06 05:45:45 21° 82° (E) 05:51:51
ISS 28 Jul 05:49:47 05:53:02 71° 37° (NE) 05:56:17 145.825
JAS-2 28 Jul 06:10:58 06:16:56 24° 298° (WNW) 06:22:42 435.910
AO-7 28 Jul 06:18:04 06:26:02 50° 295° (WNW) 06:33:53 29.400- 29.500
PRISM 28 Jul 06:33:29 06:36:23 19° 68° (ENE) 06:39:25 437.425
CUBESAT XI-V 28 Jul 06:38:00 06:42:43 90° 261° (W) 06:47:25 437.345
CUTE-I 28 Jul 06:42:04 06:46:22 25° 94° (E) 06:50:47 437.470
RS-15 28 Jul 06:47:37 06:58:45 48° 46° (NE) 07:10:26 29.354- 29.394
STRAND 1 28 Jul 06:53:28 06:58:16 42° 71° (ENE) 07:03:08 437.568
Cubesat XI-IV 28 Jul 07:23:57 07:29:16 65° 101° (E) 07:34:33 437.490
JUGNU 28 Jul 07:25:36 07:27:13 11° 179° (S) 07:28:51 437.505
ISS 28 Jul 07:28:13 07:29:06 11° 231° (SW) 07:29:49 145.825
GONETS M04 28 Jul 07:33:02 07:41:46 77° 279° (W) 07:50:30
PRISM 28 Jul 08:07:46 08:11:37 34° 263° (W) 08:15:26 437.425
AO-7 28 Jul 08:15:51 08:17:03 10° 314° (NW) 08:17:41 29.400- 29.500
CUTE-I 28 Jul 08:21:40 08:26:35 38° 290° (WNW) 08:31:24 437.470
BRITE-PL 28 Jul 08:22:00 08:25:45 29° 97° (E) 08:29:46 437.365/2234.400
Cosmos 2499 28 Jul 08:32:24 08:39:29 62° 92° (E) 08:47:08 435.465 / 435.565
STRAND 1 28 Jul 08:33:43 08:37:41 21° 267° (W) 08:41:31 437.568
BEESAT 2 28 Jul 08:48:22 08:48:59 10° 40° (NE) 08:49:46 435.950
GOMX 1 28 Jul 08:55:53 09:00:04 41° 98° (E) 09:04:33 467.674
HO-68 28 Jul 08:58:06 09:04:13 31° 95° (E) 09:10:28 435.675
RS-15 28 Jul 09:00:10 09:11:36 56° 247° (WSW) 09:23:16 29.354- 29.394
AAUSAT CUBESAT 2 28 Jul 09:01:53 09:02:48 11° 88° (E) 09:03:59 437.432
Cubesat XI-IV 28 Jul 09:05:35 09:08:53 16° 297° (WNW) 09:11:58 437.490
DOVE 4 28 Jul 09:06:43 09:10:47 33° 97° (E) 09:15:08 437.250
SRMSAT 28 Jul 09:08:37 09:10:20 11° 179° (S) 09:12:03 437.500
PCSat 28 Jul 09:15:08 09:17:49 14° 105° (ESE) 09:20:47 145.827
M-CUBED/EXP-1 PRIME 28 Jul 09:16:48 09:20:32 49° 68° (ENE) 09:24:37 437.505
BEESAT 3 28 Jul 09:32:36 09:36:14 31° 52° (NE) 09:39:51 437.485
GONETS M04 28 Jul 09:35:52 09:40:27 14° 302° (WNW) 09:44:26
Oscar 11 28 Jul 09:40:40 09:42:53 14° 90° (E) 09:45:19 145.826/435.025
CINEMA 3 28 Jul 09:49:10 09:53:33 43° 98° (E) 09:58:09 145.822/145.860
COMPASS 1 28 Jul 09:49:15 09:53:22 48° 99° (E) 09:57:27 437.405
AIST 2 28 Jul 09:50:17 09:51:28 11° 40° (NE) 09:52:49 435.215
AUBIESAT-1 28 Jul 09:50:31 09:54:22 75° 253° (WSW) 09:58:36 437.475
CUTE 1.7 + AOD 2 28 Jul 09:52:09 09:56:29 86° 102° (ESE) 10:00:46 437.475
SEEDS 28 Jul 09:56:39 10:00:57 78° 101° (ESE) 10:05:12 437.485
CANX-2 28 Jul 09:59:51 10:04:09 69° 284° (WNW) 10:08:24 2200.000
BRITE-PL 28 Jul 10:00:49 10:04:13 22° 289° (WNW) 10:07:39 437.365/2234.400
UNISAT 6 28 Jul 10:16:47 10:20:29 29° 70° (ENE) 10:24:18 437.425
BEESAT 2 28 Jul 10:23:39 10:27:45 86° 59° (ENE) 10:31:45 435.950
QB50P1 28 Jul 10:25:08 10:27:08 14° 66° (ENE) 10:29:19 145.935-145.965
DUCHIFAT 1 28 Jul 10:25:33 10:27:23 13° 66° (ENE) 10:29:25 145.980
Cosmos 2499 28 Jul 10:27:36 10:33:24 23° 294° (WNW) 10:39:15 435.465 / 435.565
NANOSAT C BR1 28 Jul 10:28:02 10:30:12 14° 67° (ENE) 10:32:33 145.865
ZACube-1 28 Jul 10:30:40 10:34:44 33° 96° (E) 10:38:52 437.345
AAUSAT CUBESAT 2 28 Jul 10:34:41 10:38:51 57° 285° (WNW) 10:42:57 437.432
GOMX 1 28 Jul 10:35:00 10:38:01 18° 291° (WNW) 10:41:00 467.674
SO-50 28 Jul 10:37:26 10:42:01 54° 117° (ESE) 10:46:48 436.795
UWE-3 28 Jul 10:44:03 10:48:34 62° 100° (E) 10:53:11 435.000/436.395/437.385
DOVE 4 28 Jul 10:44:52 10:48:26 23° 290° (WNW) 10:52:02 437.250
HO-68 28 Jul 10:45:20 10:52:12 49° 292° (WNW) 10:59:00 435.675
CUBEBUG 2 28 Jul 10:50:05 10:54:41 89° 291° (WNW) 10:59:24 437.445
DELFI C3 28 Jul 10:52:11 10:56:13 63° 100° (E) 11:00:14 145.870
FUNcube-1 28 Jul 10:54:09 10:58:36 59° 100° (E) 11:03:07 145.935
M-CUBED/EXP-1 PRIME 28 Jul 10:54:15 10:55:49 12° 268° (W) 10:57:12 437.505
PCSat 28 Jul 10:55:19 11:00:42 70° 300° (WNW) 11:06:08 145.827
ANTELSAT 28 Jul 11:01:08 11:05:26 88° 258° (WSW) 11:09:51 437.575/2403.000
TIGRISAT 28 Jul 11:01:21 11:05:37 90° 79° (E) 11:10:02 435.000
POLYITAN 1 28 Jul 11:03:50 11:07:40 37° 72° (ENE) 11:11:34 437.675
YUBILEINY 28 Jul 11:08:45 11:15:16 23° 65° (ENE) 11:22:08 435.215
BEESAT 3 28 Jul 11:10:54 11:14:00 21° 248° (WSW) 11:16:59 437.485
Oscar 11 28 Jul 11:15:11 11:19:23 47° 287° (WNW) 11:23:33 145.826/435.025
50 SAT 28 Jul 11:15:50 11:18:29 18° 92° (E) 11:21:17 437.505
UKube-1 28 Jul 11:16:21 11:19:52 25° 95° (E) 11:23:29 .
POPSAT HIP 1 28 Jul 11:22:27 11:26:34 60° 75° (ENE) 11:30:43 437.405
CUBEBUG 1 28 Jul 11:25:15 11:25:52 10° 88° (E) 11:26:48 437.445
COMPASS 1 28 Jul 11:26:22 11:28:39 14° 293° (WNW) 11:30:45 437.405
AIST 2 28 Jul 11:26:32 11:30:44 89° 57° (ENE) 11:34:52 435.215
CINEMA 3 28 Jul 11:27:15 11:30:30 19° 292° (WNW) 11:33:43 145.822/145.860
QB50P2 28 Jul 11:28:52 11:33:03 75° 76° (ENE) 11:37:16 145.880/145.840
ESTCUBE 1 28 Jul 11:29:43 11:32:21 16° 91° (E) 11:35:11 437.505/2401.250
VELOX 1 28 Jul 11:34:57 11:38:35 25° 95° (E) 11:42:17 145.980
DX 1 28 Jul 11:37:01 11:41:13 47° 99° (E) 11:45:24 434.975-435.025
Cosmos 2491 28 Jul 11:41:51 11:46:50 18° 80° (E) 11:52:19 435.465 / 435.565
BUGSAT 1 28 Jul 11:50:13 11:54:18 79° 77° (ENE) 11:58:21 437.445
UNISAT 6 28 Jul 11:53:51 11:57:18 22° 267° (W) 12:00:42 437.425
HUMSAT D 28 Jul 11:53:58 11:58:17 70° 284° (WNW) 12:02:34 437.325/437.525
QB50P1 28 Jul 11:58:32 12:02:37 49° 261° (W) 12:06:42 145.935-145.965
DUCHIFAT 1 28 Jul 11:58:43 12:02:47 51° 260° (W) 12:06:53 145.980
NANOSAT C BR1 28 Jul 12:01:39 12:05:41 46° 261° (W) 12:09:44 145.865
ZACube-1 28 Jul 12:07:22 12:10:55 23° 291° (WNW) 12:14:24 437.345
SPROUT 28 Jul 12:17:28 12:19:02 12° 89° (E) 12:20:51 437.525
SO-50 28 Jul 12:19:15 12:22:56 21° 316° (NW) 12:26:36 436.795
UWE-3 28 Jul 12:22:25 12:24:40 13° 294° (WNW) 12:26:43 435.000/436.395/437.385
DELFI C3 28 Jul 12:30:17 12:30:48 10° 295° (WNW) 12:31:05 145.870
AISAT 28 Jul 12:30:22 12:34:46 71° 285° (WNW) 12:39:09 437.250
FUNcube-1 28 Jul 12:32:12 12:34:30 14° 294° (WNW) 12:36:36 145.935
Oscar 19 28 Jul 12:37:17 12:40:27 17° 65° (ENE) 12:43:49 437.125/150
POLYITAN 1 28 Jul 12:40:58 12:43:45 17° 268° (W) 12:46:23 437.675
O/OREOS (USA 219) 28 Jul 12:41:31 12:46:04 64° 67° (ENE) 12:50:37 437.305
PCSat 28 Jul 12:43:02 12:45:14 12° 321° (NW) 12:47:11 145.827
TISAT 1 28 Jul 12:45:59 12:48:25 15° 91° (E) 12:51:01 437.305
AIST 1 28 Jul 12:47:33 12:51:44 47° 94° (E) 12:55:56
50 SAT 28 Jul 12:49:36 12:53:10 31° 288° (WNW) 12:56:40 437.505
UKube-1 28 Jul 12:52:19 12:55:58 26° 290° (WNW) 12:59:32 .
Cosmos 2504 28 Jul 12:56:24 12:59:05 12° 58° (ENE) 13:02:29 435.465 / 435.565
CUBEBUG 1 28 Jul 12:58:27 13:02:43 61° 285° (WNW) 13:06:59 437.445
POPSAT HIP 1 28 Jul 13:02:30 13:02:55 10° 272° (W) 13:03:02 437.405
YUBILEINY 28 Jul 13:04:18 13:13:06 73° 266° (W) 13:21:51 435.215
ESTCUBE 1 28 Jul 13:05:12 13:09:30 44° 287° (WNW) 13:13:45 437.505/2401.250
VELOX 1 28 Jul 13:11:22 13:15:06 27° 291° (WNW) 13:18:45 145.980
DX 1 28 Jul 13:14:34 13:17:06 15° 294° (WNW) 13:19:29 434.975-435.025
Cosmos 2491 28 Jul 13:33:53 13:42:42 86° 278° (W) 13:51:31 435.465 / 435.565
ITAMSAT 1 28 Jul 13:47:57 13:51:51 22° 66° (ENE) 13:55:53 435.822/435.867
SPROUT 28 Jul 13:51:19 13:55:30 53° 286° (WNW) 13:59:41 437.525
Oscar 19 28 Jul 14:14:23 14:19:24 56° 260° (W) 14:24:27 437.125/150
TISAT 1 28 Jul 14:20:27 14:24:24 40° 288° (WNW) 14:28:19 437.305
O/OREOS (USA 219) 28 Jul 14:23:30 14:25:01 11° 261° (W) 14:26:14 437.305
AIST 1 28 Jul 14:27:26 14:29:44 14° 291° (WNW) 14:31:50
BEESAT 28 Jul 14:33:06 14:37:34 39° 98° (E) 14:42:01 436.000
JAS-2 28 Jul 14:36:49 14:41:37 27° 63° (ENE) 14:47:03 435.910
Gurwin Techsat 1B 28 Jul 14:38:53 14:44:09 73° 75° (ENE) 14:49:30 435.225
Cosmos 2504 28 Jul 14:44:50 14:53:08 67° 80° (E) 15:01:43 435.465 / 435.565
SWISSCUBE 28 Jul 14:52:47 14:57:34 69° 102° (ESE) 15:02:19 437.505
KKS-1 28 Jul 14:59:27 15:00:18 11° 89° (E) 15:01:27 437.445
HORYU 2 28 Jul 15:01:34 15:03:34 13° 65° (ENE) 15:05:49 437.375
YUBILEINY 28 Jul 15:05:17 15:08:35 12° 283° (WNW) 15:11:06 435.215
ITUPSAT 1 28 Jul 15:11:38 15:16:27 84° 286° (WNW) 15:21:14 437.325
CUSAT 1 28 Jul 15:20:59 15:23:43 18° 76° (ENE) 15:27:07 437.405
AO-7 28 Jul 15:23:03 15:30:46 45° 64° (ENE) 15:38:36 29.400- 29.500
ITAMSAT 1 28 Jul 15:26:07 15:31:06 44° 261° (W) 15:36:04 435.822/435.867
Cosmos 2491 28 Jul 15:35:36 15:41:08 17° 299° (WNW) 15:46:08 435.465 / 435.565
BEESAT 28 Jul 16:11:32 16:15:11 21° 293° (WNW) 16:18:41 436.000
DANDE 28 Jul 16:12:34 16:15:50 38° 80° (E) 16:20:04 436.750
STARS 28 Jul 16:16:45 16:21:02 48° 99° (E) 16:25:19 437.465
JAS-2 28 Jul 16:20:48 16:26:22 47° 264° (W) 16:32:38 435.910
Gurwin Techsat 1B 28 Jul 16:22:23 16:24:48 13° 272° (W) 16:26:54 435.225
SWISSCUBE 28 Jul 16:32:43 16:34:54 13° 297° (WNW) 16:36:50 437.505
KKS-1 28 Jul 16:33:01 16:37:26 64° 285° (WNW) 16:41:51 437.445
HORYU 2 28 Jul 16:35:24 16:39:46 58° 259° (W) 16:44:10 437.375
Cosmos 2504 28 Jul 16:38:15 16:44:47 25° 276° (W) 16:51:09 435.465 / 435.565
MOZHAYETS 4 28 Jul 16:54:01 16:57:45 24° 94° (E) 17:01:32
CUSAT 1 28 Jul 17:02:38 17:06:11 31° 263° (W) 17:10:37 437.405
Cubesat XI-IV 28 Jul 17:08:44 17:10:37 12° 61° (ENE) 17:12:48 437.490
AO-7 28 Jul 17:15:50 17:23:38 41° 262° (W) 17:31:21 29.400- 29.500
GONETS M04 28 Jul 17:44:55 17:53:19 51° 76° (ENE) 18:01:47
STARS 28 Jul 17:54:29 17:57:07 15° 294° (WNW) 17:59:35 437.465
DANDE 28 Jul 17:57:39 17:58:58 11° 264° (W) 18:00:07 436.750
CUTE-I 28 Jul 18:02:30 18:07:23 38° 70° (ENE) 18:12:20 437.470
PCSat 28 Jul 18:03:21 18:05:20 12° 39° (NE) 18:07:34 145.827
Cosmos 2499 28 Jul 18:24:49 18:31:09 23° 65° (ENE) 18:37:57 435.465 / 435.565
MOZHAYETS 4 28 Jul 18:30:54 18:35:00 31° 289° (WNW) 18:39:00
CUBESAT XI-V 28 Jul 18:36:37 18:40:20 24° 94° (E) 18:44:07 437.345
Cubesat XI-IV 28 Jul 18:44:40 18:50:03 88° 256° (WSW) 18:55:28 437.490
STRAND 1 28 Jul 19:06:33 19:09:25 15° 90° (E) 19:12:31 437.568
SO-50 28 Jul 19:10:13 19:14:48 36° 51° (NE) 19:19:19 436.795
HO-68 28 Jul 19:26:45 19:31:41 21° 59° (ENE) 19:36:53 435.675
BRITE-PL 28 Jul 19:32:09 19:36:04 30° 72° (ENE) 19:39:51 437.365/2234.400
GONETS M04 28 Jul 19:42:20 19:49:52 33° 274° (W) 19:57:13
CUTE-I 28 Jul 19:43:05 19:47:34 26° 266° (W) 19:51:57 437.470
PCSat 28 Jul 19:44:26 19:49:52 71° 60° (ENE) 19:55:15 145.827
VERMONT LUNAR 28 Jul 19:46:51 19:49:23 22° 151° (SSE) 19:51:57 437.305
PRISM 28 Jul 19:51:04 19:54:48 33° 97° (E) 19:58:32 437.425
GOMX 1 28 Jul 20:03:29 20:07:27 37° 73° (ENE) 20:11:19 467.674
DOVE 4 28 Jul 20:12:01 20:15:31 27° 71° (ENE) 20:19:02 437.250
CUBESAT XI-V 28 Jul 20:13:45 20:17:48 30° 289° (WNW) 20:21:46 437.345
Cosmos 2499 28 Jul 20:16:36 20:25:18 78° 266° (W) 20:34:10 435.465 / 435.565
Oscar 11 28 Jul 20:36:38 20:36:54 10° 64° (ENE) 20:37:26 145.826/435.025
COMPASS 1 28 Jul 20:39:23 20:42:57 28° 71° (ENE) 20:46:37 437.405
CUTE 1.7 + AOD 2 28 Jul 20:43:32 20:47:38 50° 74° (ENE) 20:51:49 437.475
STRAND 1 28 Jul 20:44:03 20:49:04 57° 287° (WNW) 20:54:03 437.568
SEEDS 28 Jul 20:47:16 20:51:17 44° 74° (ENE) 20:55:22 437.485
CINEMA 3 28 Jul 20:50:27 20:54:04 30° 71° (ENE) 20:57:46 145.822/145.860
SO-50 28 Jul 20:51:02 20:55:13 27° 247° (WSW) 20:59:13 436.795
CANX-2 28 Jul 20:51:08 20:55:22 71° 76° (ENE) 20:59:39 2200.000
BRITE-PL 28 Jul 21:11:05 21:14:40 22° 266° (W) 21:17:59 437.365/2234.400
HO-68 28 Jul 21:11:39 21:18:47 74° 256° (WSW) 21:25:58 435.675
RS-15 28 Jul 21:12:13 21:20:37 28° 105° (ESE) 21:29:37 29.354- 29.394
VERMONT LUNAR 28 Jul 21:22:43 21:25:54 86° 171° (S) 21:29:05 437.305
AAUSAT CUBESAT 2 28 Jul 21:23:39 21:27:50 79° 77° (ENE) 21:32:04 437.432
ZACube-1 28 Jul 21:26:13 21:29:20 21° 69° (ENE) 21:32:36 437.345
PRISM 28 Jul 21:27:07 21:30:01 18° 292° (WNW) 21:32:48 437.425
PCSat 28 Jul 21:29:47 21:32:44 14° 255° (WSW) 21:35:24 145.827
AUBIESAT-1 28 Jul 21:35:04 21:35:39 10° 92° (E) 21:36:33 437.475
DELFI C3 28 Jul 21:38:07 21:41:42 32° 72° (ENE) 21:45:22 145.870
UWE-3 28 Jul 21:40:17 21:44:09 40° 73° (ENE) 21:48:09 435.000/436.395/437.385
GOMX 1 28 Jul 21:42:57 21:45:47 16° 268° (W) 21:48:23 467.674
CUBEBUG 2 28 Jul 21:47:16 21:51:21 63° 75° (ENE) 21:55:33 437.445
FUNcube-1 28 Jul 21:48:57 21:52:45 37° 72° (ENE) 21:56:40 145.935
DOVE 4 28 Jul 21:49:59 21:53:19 22° 266° (W) 21:56:31 437.250
Oscar 11 28 Jul 22:08:14 22:12:32 73° 259° (WSW) 22:16:54 145.826/435.025
PHONESAT 2.4 28 Jul 22:10:03 22:13:22 39° 155° (SSE) 22:16:41 2401.200-2431.200
UKube-1 28 Jul 22:10:30 22:13:31 19° 68° (ENE) 22:16:39 .
Cosmos 2499 28 Jul 22:13:00 22:17:20 14° 281° (W) 22:21:02 435.465 / 435.565
COMPASS 1 28 Jul 22:15:18 22:18:38 22° 266° (W) 22:21:54 437.405
CUTE 1.7 + AOD 2 28 Jul 22:21:58 22:23:56 12° 271° (W) 22:25:40 437.475
SEEDS 28 Jul 22:24:59 22:27:22 14° 270° (W) 22:29:33 437.485
ISS 28 Jul 22:28:02 22:31:06 41° 137° (SE) 22:34:12 145.825
CINEMA 3 28 Jul 22:28:23 22:31:23 19° 267° (W) 22:34:19 145.822/145.860
ESTCUBE 1 28 Jul 22:28:59 22:31:12 14° 65° (ENE) 22:33:37 437.505/2401.250
DX 1 28 Jul 22:31:26 22:35:23 35° 71° (ENE) 22:39:22 434.975-435.025
VELOX 1 28 Jul 22:31:48 22:35:01 21° 68° (ENE) 22:38:22 145.980
M-CUBED/EXP-1 PRIME 28 Jul 22:32:58 22:37:41 54° 104° (ESE) 22:42:19 437.505
HUMSAT D 28 Jul 22:44:12 22:48:17 68° 76° (ENE) 22:52:26 437.325/437.525
ANTELSAT 28 Jul 22:54:43 22:58:20 22° 93° (E) 23:02:05 437.575/2403.000
TIGRISAT 28 Jul 22:54:43 22:58:14 22° 93° (E) 23:01:54 435.000
AIST 1 28 Jul 22:58:42 22:59:20 10° 67° (ENE) 23:00:15
VERMONT LUNAR 28 Jul 22:59:36 23:02:46 62° 2° (N) 23:05:54 437.305
ZACube-1 28 Jul 23:01:54 23:05:33 29° 265° (W) 23:09:14 437.345
AUBIESAT-1 28 Jul 23:06:11 23:10:58 80° 289° (WNW) 23:15:37 437.475
HO-68 28 Jul 23:06:18 23:07:53 10° 275° (W) 23:08:49 435.675
POPSAT HIP 1 28 Jul 23:11:23 23:12:15 11° 89° (E) 23:13:24 437.405
DELFI C3 28 Jul 23:14:00 23:16:53 18° 268° (W) 23:19:38 145.870
QB50P2 28 Jul 23:17:00 23:19:02 13° 90° (E) 23:21:16 145.880/145.840
UWE-3 28 Jul 23:18:27 23:20:57 15° 270° (W) 23:23:19 435.000/436.395/437.385
RS-15 28 Jul 23:21:09 23:32:04 74° 305° (NW) 23:43:23 29.354- 29.394
FUNcube-1 28 Jul 23:26:34 23:29:17 16° 269° (W) 23:31:53 145.935
AISAT 28 Jul 23:26:34 23:30:59 87° 77° (ENE) 23:35:25 437.250
50 SAT 28 Jul 23:31:27 23:35:18 69° 259° (W) 23:39:13 437.505
BUGSAT 1 28 Jul 23:35:34 23:37:01 12° 90° (E) 23:38:42 437.445
TISAT 1 28 Jul 23:38:56 23:39:41 11° 65° (ENE) 23:40:40 437.305
DUCHIFAT 1 28 Jul 23:44:49 23:48:21 26° 95° (E) 23:51:58 145.980
QB50P1 28 Jul 23:45:00 23:48:38 27° 95° (E) 23:52:19 145.935-145.965
UKube-1 28 Jul 23:45:26 23:49:25 35° 262° (W) 23:53:24 .
UNISAT 6 28 Jul 23:45:29 23:50:10 79° 100° (E) 23:54:53 437.425
Cosmos 2491 28 Jul 23:46:07 23:54:19 45° 74° (ENE) 00:02:35 435.465 / 435.565
PHONESAT 2.4 28 Jul 23:47:44 23:51:15 74° 350° (N) 23:54:45 2401.200-2431.200
NANOSAT C BR1 28 Jul 23:47:47 23:51:29 29° 96° (E) 23:55:13 145.865
CUBEBUG 1 28 Jul 23:52:56 23:57:19 88° 257° (WSW) 00:01:41 437.445
ESTCUBE 1 29 Jul 00:03:10 00:07:38 57° 260° (W) 00:12:08 437.505/2401.250
ISS 29 Jul 00:04:55 00:07:38 23° 333° (NNW) 00:10:20 145.825
VELOX 1 29 Jul 00:07:21 00:11:22 34° 263° (W) 00:15:23 145.980
DX 1 29 Jul 00:08:38 00:11:46 19° 267° (W) 00:14:46 434.975-435.025
M-CUBED/EXP-1 PRIME 29 Jul 00:08:46 00:12:03 18° 299° (WNW) 00:15:10 437.505
YUBILEINY 29 Jul 00:08:52 00:15:35 27° 84° (E) 00:22:39 435.215
BEESAT 2 29 Jul 00:16:36 00:19:40 21° 112° (ESE) 00:22:52 435.950
POLYITAN 1 29 Jul 00:25:37 00:29:54 86° 98° (E) 00:34:12 437.675
TIGRISAT 29 Jul 00:30:49 00:35:05 36° 288° (WNW) 00:39:20 435.000
ANTELSAT 29 Jul 00:30:56 00:35:11 34° 289° (WNW) 00:39:25 437.575/2403.000
AIST 1 29 Jul 00:33:18 00:37:31 59° 265° (W) 00:41:41
VERMONT LUNAR 29 Jul 00:36:25 00:39:34 64° 199° (SSW) 00:42:40 437.305
ITUPSAT 1 29 Jul 00:43:39 00:44:31 11° 62° (ENE) 00:45:41 437.325
SPROUT 29 Jul 00:43:47 00:48:04 83° 258° (WSW) 00:52:21 437.525
POPSAT HIP 1 29 Jul 00:44:23 00:48:34 59° 286° (WNW) 00:52:46 437.405
QB50P2 29 Jul 00:51:07 00:55:14 47° 286° (WNW) 00:59:19 145.880/145.840
BEESAT 3 29 Jul 01:00:55 01:04:59 90° 70° (ENE) 01:09:06 437.485
BUGSAT 1 29 Jul 01:08:53 01:12:48 48° 286° (WNW) 01:16:44 437.445
TISAT 1 29 Jul 01:10:48 01:14:58 65° 260° (W) 01:19:07 437.305
DUCHIFAT 1 29 Jul 01:20:38 01:24:05 24° 290° (WNW) 01:27:28 145.980
QB50P1 29 Jul 01:20:59 01:24:23 23° 290° (WNW) 01:27:43 145.935-145.965
AIST 2 29 Jul 01:23:36 01:27:05 26° 113° (ESE) 01:30:39 435.215
NANOSAT C BR1 29 Jul 01:23:51 01:27:11 22° 291° (WNW) 01:30:24 145.865
UNISAT 6 29 Jul 01:25:05 01:26:23 11° 296° (WNW) 01:27:25 437.425
PHONESAT 2.4 29 Jul 01:25:52 01:29:23 73° 10° (N) 01:32:51 2401.200-2431.200
RS-15 29 Jul 01:38:08 01:46:59 25° 333° (NNW) 01:55:53 29.354- 29.394
BEESAT 29 Jul 01:38:19 01:42:44 39° 71° (ENE) 01:47:12 436.000
Cosmos 2491 29 Jul 01:43:15 01:51:05 38° 273° (W) 01:58:45 435.465 / 435.565
BEESAT 2 29 Jul 01:53:48 01:57:33 33° 308° (NW) 02:01:18 435.950
SWISSCUBE 29 Jul 01:57:54 02:02:40 69° 74° (ENE) 02:07:28 437.505
YUBILEINY 29 Jul 02:03:18 02:11:53 61° 282° (WNW) 02:20:31 435.215
VERMONT LUNAR 29 Jul 02:14:08 02:15:56 14° 213° (SSW) 02:17:41 437.305
ITUPSAT 1 29 Jul 02:16:58 02:21:47 85° 254° (WSW) 02:26:39 437.325
Oscar 19 29 Jul 02:27:01 02:32:07 57° 100° (E) 02:37:13 437.125/150
BEESAT 3 29 Jul 02:42:24 02:43:35 11° 320° (NW) 02:44:36 437.485
O/OREOS (USA 219) 29 Jul 02:52:22 02:56:49 84° 291° (WNW) 03:01:21 437.305
Gurwin Techsat 1B 29 Jul 02:56:45 03:01:27 32° 96° (E) 03:06:11 435.225
AIST 2 29 Jul 03:01:47 03:05:34 30° 309° (NW) 03:09:20 435.215
PHONESAT 2.4 29 Jul 03:03:58 03:07:16 41° 205° (SSW) 03:10:32 2401.200-2431.200
STARS 29 Jul 03:12:29 03:16:27 36° 71° (ENE) 03:20:29 437.465
Cosmos 2504 29 Jul 03:14:20 03:20:57 48° 90° (E) 03:28:04 435.465 / 435.565
BEESAT 29 Jul 03:17:07 03:20:44 20° 267° (W) 03:24:14 436.000
ISS 29 Jul 03:21:31 03:22:35 11° 13° (NNE) 03:23:41 145.825
AO-7 29 Jul 03:29:04 03:31:57 13° 86° (E) 03:35:34 29.400- 29.500
KKS-1 29 Jul 03:29:38 03:34:04 84° 257° (WSW) 03:38:32 437.445
JAS-2 29 Jul 03:30:30 03:37:16 32° 93° (E) 03:44:09 435.910
SWISSCUBE 29 Jul 03:39:22 03:41:05 11° 272° (W) 03:42:29 437.505
ITAMSAT 1 29 Jul 03:39:54 03:45:06 73° 102° (ESE) 03:50:16 435.822/435.867
MOZHAYETS 4 29 Jul 03:55:08 03:58:30 21° 68° (ENE) 04:02:01
YUBILEINY 29 Jul 04:09:37 04:11:08 10° 306° (NW) 04:11:51 435.215
